sat.trackr.live / text

‹ back to catalog

ICEYE-X52

NORAD 64572 · 2025-135AW

PAYLOAD ACTIVE UNKNOWN

§ Identity

Operator
Country
FIN
Launch date
2025-06-23
Launch site
AFWTR
Launch vehicle
Mass (kg)
RCS (m²)

External: N2YO · Heavens-Above · Gunter

§ Orbital elements

Epoch: 2026-09-21T22:27:18.954720Z

Period
96.39 min
Inclination
97.7824°
Eccentricity
0.0002406
Mean motion
14.93891155 rev/d
Perigee alt
584.1 km
Apogee alt
587.5 km
Semi-major
6,964.0 km
B*
1.4045e-4
RAAN
18.1797°
Arg perigee
43.0397°
Mean anomaly
317.1011°
Rev number
6,832

§ Raw data

ICEYE-X521 64572U 25135AW  26264.93563605  .00001436  00000+0  14045-3 0  99972 64572  97.7824  18.1797 0002406  43.0397 317.1011 14.93891155 68323

JSON: /api/v1/satellites/64572 · /tle

For live sub-satellite position, see the globe view (requires WebGL).

§ Visibility from observer

Set your observer location to see the next 7 days of passes ≥ 10°. The values pass through the URL so the page stays shareable.

No JS? Fill the form by hand. The geolocation button needs JavaScript.

§ Radio — SatNOGS DB

ModeDescriptionDownlinkUplink
FM S-band telemetry 2.264 GHz

1 transmitter · refreshed weekly from db.satnogs.org